Location: ??? ?????
(30.6482°N, 60.5850°E)
Time: 04:43:41
(UTC+00:00)

FALCON 9 DEB - Pass Details

Date: 09 April 2020
Orbit: 428 x 442 km, 53.0° (Epoch: 05 June)

Event Time Altitude Azimuth Distance (km) Brightness Sun altitude
Rises 14:40:52 0° 235° (SW) 2,418 7.6 -4.8°
Reaches altitude 10° 14:43:03 10° 242° (WSW) 1,552 6.8 -5.3°
Maximum altitude 14:46:23 43° 316° (NW) 633 4.5 -6.0°
Drops below altitude 10° 14:49:45 10° 29° (NNE) 1,557 5.8 -6.7°
Sets 14:51:56 0° 36° (NE) 2,428 6.7 -7.2°
